Retour au catalogue

THORAD AGENA D DEB

ActifPO
NORAD 4737·DEBRIS·🇺🇸 United States

Lancé Apr 8, 1970 depuis Vandenberg Space Force Base

Loading…

Prochains Passages (prochaines 24 heures)

TLE

FraisSource: Space-Track

Époque: Sep 14, 2026, 10:05 UTC

1 04737U 70025CL  26257.42067625  .00002199  00000-0  81553-3 0  9995
2 04737  99.0577 251.6587 0023566 179.8826 180.2366 14.33166217860382

Suivez THORAD AGENA D DEB en temps réel avec AllMySat

Download on the App Store